Regional Weather Roundup
Issued by NWS

Home | Current Version | Previous Version | Graphics & Text | Print | Product List | Glossary On
Versions: 1 2 3 4 5 6 7 8 9 10 11 12 13 14 15 16 17 18 19 20 21 22 23 24 25 26 27 28 29 30 31 32 33 34 35 36 37 38 39 40 41 42 43 44 45 46 47 48 49 50
000
ASUS43 KLMK 220710
RWRKY
KENTUCKY REGIONAL WEATHER ROUNDUP
NATIONAL WEATHER SERVICE LOUISVILLE KY
300 AM EDT TUE JUL 22 2014

NOTE "FAIR" INDICATES FEW OR NO CLOUDS BELOW 12,000 FEET
WITH NO SIGNIFICANT WEATHER AND/OR OBSTRUCTIONS TO VISIBILITY.

KYZ001>023-026-027-061>063-070>075-220800-
WESTERN AND SOUTH CENTRAL KENTUCKY

CITY           SKY/WX    TMP DP  RH WIND       PRES   REMARKS
PADUCAH        CLEAR     68  65  90 CALM      30.06F
HENDERSON      CLEAR     64  61  88 CALM      30.06S
OWENSBORO      CLEAR     69  66  90 CALM      30.06F
HOPKINSVILLE   CLEAR     71  68  92 CALM      30.06S
BOWLING GREEN  MOCLDY    75  68  78 CALM      30.07S
GLASGOW        PTCLDY    72  70  93 CALM      30.08S
$$

KYZ024-025-028>034-038-045-046-053-220800-
NORTH CENTRAL KENTUCKY

CITY           SKY/WX    TMP DP  RH WIND       PRES   REMARKS
LOUISVILLE/SDF PTCLDY    73  69  87 NW3       30.07F
LOUISVILLE/LOU CLEAR     73  67  81 CALM      30.08S
FORT KNOX      CLEAR     70  67  89 CALM      30.07F
$$

KYZ035>037-039>044-047>052-055>060-089>105-220800-
NORTHEAST KENTUCKY

CITY           SKY/WX    TMP DP  RH WIND       PRES   REMARKS
LEXINGTON      CLEAR     70  67  90 CALM      30.10F
COVINGTON      CLEAR     74  66  76 E3        30.10F
FRANKFORT      CLEAR     68  66  93 CALM      30.08F
$$

KYZ054-064>069-076>088-106>120-220800-
SOUTHEAST KENTUCKY

CITY           SKY/WX    TMP DP  RH WIND       PRES   REMARKS
JACKSON        CLEAR     73  67  81 CALM      30.12S
LONDON         CLEAR     73  69  87 CALM      30.11F
SOMERSET       CLEAR     70  70 100 CALM      30.10S
MIDDLESBORO    PTCLDY    70  68  93 CALM      30.12F
MONTICELLO     FOG       68  68 100 CALM      30.10S VSB 3/4
$$



USA.gov is the U.S. government's official web portal to all federal, state and local government web resources and services.